EW9965 Weather Reports


time (UTC)temp
C
wind
direction
speed
KPH
gust
KPH
rain 1hr
cm
rain 24hr
cm
rain mn
cm
humidity
%
barometer
mb
20260505033047 16 210 0.0 9.7 0.00 0.00 0.00 70 1015.4
20260505031552 16 171 0.0 9.7 0.00 0.00 0.00 70 1015.1
20260505030045 16 238 3.2 9.7 0.00 0.00 0.00 69 1015.1
20260505024544 16 185 1.6 12.9 0.00 0.00 0.00 68 1014.9
20260505023050 16 193 6.4 16.1 0.00 0.00 0.00 67 1014.9
20260505021544 16 168 3.2 14.5 0.00 0.00 0.00 66 1014.8
20260505020043 17 163 4.8 12.9 0.00 0.00 0.00 64 1014.9
20260505014542 17 228 4.8 14.5 0.00 0.00 0.00 62 1014.7
20260505013058 18 213 4.8 17.7 0.00 0.00 0.00 61 1014.9
20260505011541 18 243 0.0 12.9 0.00 0.00 0.00 60 1014.8
20260505010040 18 182 8.0 19.3 0.00 0.00 0.00 58 1014.9
20260505004540 19 139 8.0 17.7 0.00 0.00 0.00 56 1015.0
20260505003039 20 186 8.0 17.7 0.00 0.00 0.00 54 1014.8
20260505001538 20 253 6.4 17.7 0.00 0.00 0.00 51 1014.8
20260505000051 20 225 4.8 14.5 0.00 0.00 0.00 51 1014.7
20260504234538 20 174 8.0 19.3 0.00 0.00 0.00 51 1014.9
20260504233041 20 230 6.4 14.5 0.00 0.00 0.00 51 1014.8
20260504231536 21 187 4.8 19.3 0.00 0.00 0.00 50 1014.7
20260504230036 21 178 4.8 22.5 0.00 0.00 0.00 49 1014.8
20260504224535 21 163 8.0 17.7 0.00 0.00 0.00 50 1014.8
20260504223041 21 167 8.0 17.7 0.00 0.00 0.00 47 1014.9
20260504221533 21 201 3.2 14.5 0.00 0.00 0.00 47 1014.9
20260504220040 21 234 8.0 25.7 0.00 0.00 0.00 47 1015.1
20260504214541 21 157 4.8 17.7 0.00 0.00 0.00 49 1015.2
20260504213035 21 199 8.0 16.1 0.00 0.00 0.00 48 1015.2
20260504211536 21 203 6.4 19.3 0.00 0.00 0.00 48 1015.4
20260504210031 21 191 4.8 20.9 0.00 0.00 0.00 47 1015.3
20260504204531 21 255 11.3 19.3 0.00 0.00 0.00 46 1015.6
20260504203032 21 207 8.0 17.7 0.00 0.00 0.00 47 1015.3
20260504201529 21 178 11.3 22.5 0.00 0.00 0.00 48 1015.4
20260504200027 21 216 8.0 17.7 0.00 0.00 0.00 50 1015.6
20260504194524 20 215 9.7 17.7 0.00 0.00 0.00 50 1015.8
20260504193025 20 262 3.2 16.1 0.00 0.00 0.00 51 1015.8
20260504191523 20 249 9.7 19.3 0.00 0.00 0.00 51 1015.8
20260504190019 20 184 6.4 12.9 0.00 0.00 0.00 53 1016.0
20260504184519 19 245 8.0 17.7 0.00 0.00 0.00 52 1016.2
20260504183016 18 178 4.8 12.9 0.00 0.00 0.00 56 1016.2
20260504181523 18 268 4.8 12.9 0.00 0.00 0.00 59 1016.3
20260504180011 18 189 1.6 11.3 0.00 0.00 0.00 59 1016.3
20260504174509 17 229 4.8 12.9 0.00 0.00 0.00 61 1016.2
20260504173009 18 160 3.2 17.7 0.00 0.00 0.00 62 1016.2
20260504171508 18 204 1.6 16.1 0.00 0.00 0.00 62 1016.1
20260504081507 15 180 3.2 11.3 0.00 0.03 0.00 76 1015.5
20260504044552 16 195 0.0 8.0 0.00 0.03 0.03 70 1015.0
20260504043049 16 220 0.0 6.4 0.00 0.03 0.03 69 1015.0
20260504041547 16 201 1.6 9.7 0.00 0.03 0.03 69 1015.0
20260504040048 16 238 1.6 8.0 0.00 0.03 0.03 69 1014.5
20260504034546 16 190 0.0 8.0 0.00 0.03 0.03 68 1014.7